Temp
55 55 55 55 55 55 55 55 55 55 54 54 54 54 54 54 53 51 50 53 47 37 42 46 48 42 42 40 32 39 36 36 32 27 27 29 28 33 31 34 28 24 20 21 24 21 19 45 41 32 38 44 45 44
54 54 54 54 55 54 54 54 54 54 54 54 54 54 54 54 53 52 48 54 54 42 41 50 50 52 49 48 41 39 37 37 36 30 30 30 26 29 29 25 37 25 29 27 27 29 42 44 43 47 46 44 44 43
54 54 54 54 54 54 54 54 54 53 53 53 53 53 53 53 53 51 48 50 47 41 40 43 45 53 56 54 54 35 39 43 40 43 32 30 24 31 25 28 33 37 41 33 34 38 42 45 47 48 46 44 47 47
53 53 53 53 53 53 53 54 54 53 53 53 53 53 53 53 52 51 47 50 47 40 31 38 54 49 55 54 53 52 47 46 43 35 30 29 26 33 29 32 31 37 39 36 35 41 44 44 46 47 47 47 47 47
53 53 53 53 53 53 53 53 53 53 53 52 52 52 52 52 52 49 49 49 50 40 31 34 45 49 54 53 51 50 47 40 35 31 29 26 33 32 33 33 31 40 38 33 31 44 43 43 46 48 45 44 45 45
52 52 52 52 52 52 52 52 53 53 53 53 52 52 52 52 51 47 34 47 50 47 33 27 44 44 49 49 47 46 44 40 36 32 31 32 38 33 28 26 39 43 45 46 43 45 46 46 48 46 46 46 48 46
52 52 52 52 52 52 52 52 52 53 53 53 52 52 51 51 47 42 38 44 48 46 32 27 31 46 48 46 43 40 41 36 35 33 31 32 34 33 29 25 38 43 43 47 49 45 40 44 42 47 46 48 48 47
52 52 52 52 52 52 52 52 52 52 52 52 52 51 50 49 48 43 46 49 47 38 34 25 27 35 47 35 33 39 34 34 32 32 33 32 34 31 25 35 41 43 44 43 45 47 44 45 45 45 46 47 44 45
52 52 52 52 52 52 52 52 52 52 51 51 50 49 47 44 39 42 48 47 45 38 28 28 25 24 41 35 35 35 35 27 35 30 32 34 30 26 32 37 40 43 43 43 46 46 43 43 42 44 43 43 42 44
51 51 52 52 52 52 51 52 51 51 50 49 47 43 36 41 48 47 41 36 33 33 33 26 33 27 36 33 29 29 32 27 24 31 35 30 28 39 42 44 43 44 47 48 42 39 41 40 42 42 42 45 45 46
51 51 51 52 52 52 51 52 50 50 48 44 38 36 44 48 41 37 29 26 28 24 30 32 34 30 39 29 28 31 25 27 18 28 28 26 26 36 43 44 46 46 47 46 46 46 45 44 44 45 44 45 46 45
51 50 51 51 51 51 51 50 50 46 43 42 42 44 41 34 30 25 23 26 26 25 33 32 33 36 34 35 30 29 24 26 19 32 27 24 33 39 42 44 45 47 45 46 46 45 47 48 46 46 45 45 45 46
50 50 50 50 50 50 50 50 49 48 46 44 37 31 30 27 17 18 13 21 24 32 34 34 31 32 33 33 29 27 23 22 33 25 23 30 37 42 42 43 44 46 46 46 46 46 47 46 47 45 45 45 44 46
50 50 50 49 50 50 49 49 49 46 42 32 27 18 22 20 23 26 27 28 34 35 34 35 31 29 31 27 27 22 28 28 21 22 24 32 36 38 41 43 43 42 43 44 44 43 43 43 43 43 44 45 45 44
50 50 50 49 49 49 49 48 48 45 36 29 28 19 24 31 33 35 35 32 35 38 35 30 29 30 26 23 26 26 23 19 24 24 31 35 36 37 38 40 40 40 41 41 42 42 42 43 43 43 44 44 44 45
50 49 48 50 49 49 49 47 44 41 34 30 29 26 32 31 31 33 34 31 36 34 34 31 25 21 21 24 21 23 22 22 26 32 34 35 34 38 37 39 40 41 41 41 41 42 42 43 42 42 44 43 43 44
49 45 50 49 49 48 48 42 39 32 30 28 26 34 33 33 32 32 36 36 40 31 24 27 22 20 26 21 21 28 26 30 34 34 37 37 36 38 40 41 42 43 42 41 41 41 42 44 44 41 40 41 43 43
45 47 49 48 47 45 42 39 33 30 26 28 27 32 35 37 35 35 37 37 33 31 29 27 30 21 20 19 25 31 34 34 36 36 36 38 39 39 42 40 42 42 42 42 42 42 42 41 40 39 40 41 41 42
47 47 49 48 45 36 31 31 32 26 28 33 34 36 35 36 38 38 37 37 36 36 32 29 23 23 27 31 31 33 33 34 34 35 37 39 39 39 40 41 42 41 41 40 41 40 40 41 40 40 40 40 39 40
48 47 47 47 45 33 29 30 33 29 26 32 34 33 33 34 36 36 35 35 34 32 28 25 26 31 33 34 34 34 34 35 35 34 35 38 40 40 39 39 38 39 39 39 38 41 40 39 40 41 40 40 39 39
46 45 46 44 36 33 32 30 28 30 31 30 33 33 32 34 33 32 32 35 30 29 28 32 32 34 39 36 37 36 37 38 37 36 34 34 38 39 39 39 39 38 37 37 36 37 38 37 39 40 40 39 40 41
42 45 37 39 32 32 30 34 31 33 30 30 31 32 30 29 31 32 34 30 30 32 33 36 36 37 37 36 37 38 39 38 38 37 39 38 35 36 37 37 36 35 36 36 37 36 37 39 39 39 38 38 41 40
41 39 33 32 29 29 27 34 27 30 24 27 30 26 26 28 31 34 28 31 33 38 39 38 37 38 38 40 39 38 38 37 35 36 38 37 37 37 37 37 37 34 33 36 38 37 37 41 40 37 39 39 39 39
39 32 29 27 27 25 27 25 29 28 28 26 24 21 25 27 31 27 26 31 34 35 34 35 35 34 34 35 34 36 38 37 36 37 37 35 34 36 37 37 36 36 36 36 36 37 38 38 41 38 38 39 39 39
27 25 26 21 26 24 23 24 24 25 20 24 22 21 24 29 24 25 27 31 32 32 33 34 34 35 33 35 35 36 38 37 35 34 37 37 36 36 36 37 37 37 38 35 35 36 36 37 38 38 38 38 38 42
23 25 22 24 23 23 24 21 23 24 26 21 24 27 27 25 20 21 28 31 32 33 33 33 32 32 32 33 32 34 35 37 36 32 36 37 36 35 33 33 33 34 37 37 35 35 35 37 36 35 36 37 41 37
21 19 25 31 31 30 28 30 30 27 23 20 23 22 23 15 18 28 32 33 33 34 36 36 35 34 34 33 35 37 37 37 36 35 36 37 37 37 36 33 31 34 37 36 35 35 34 34 35 35 35 36 36 36
25 28 22 26 27 30 23 23 23 23 25 28 26 21 19 21 25 30 31 34 35 35 35 36 37 36 36 36 36 36 35 36 36 36 35 35 36 37 36 37 37 39 37 37 36 35 35 34 34 35 35 38 38 40
26 30 29 17 25 27 26 27 26 30 32 29 25 24 26 32 34 33 33 34 37 35 33 32 33 35 34 34 34 35 34 33 30 28 29 29 31 32 36 36 35 35 35 35 40 38 35 35 34 35 38 38 38 39
25 32 26 23 17 20 28 32 30 33 33 33 32 31 30 30 32 35 34 33 31 32 34 36 35 33 31 31 31 31 33 34 33 31 28 29 31 33 33 33 34 34 35 34 34 35 40 38 39 38 37 36 35 35
31 30 26 26 24 29 32 34 33 32 30 28 29 28 29 31 33 33 32 33 33 32 32 31 31 32 32 31 30 29 29 34 34 34 34 33 33 32 33 34 34 35 35 37 38 37 36 36 35 35 36 35 34 35
29 26 25 21 24 27 29 27 27 27 27 27 26 27 28 28 26 32 31 31 31 29 32 32 30 30 33 33 32 32 36 33 33 33 33 33 32 34 35 37 38 36 37 36 36 35 35 35 34 34 33 33 34 34
26 28 27 25 22 22 27 25 25 23 25 25 26 28 28 28 26 29 29 30 30 29 30 31 31 31 31 30 30 31 35 32 33 37 37 37 38 38 37 37 38 37 37 36 35 35 35 34 33 32 33 33 34 33
MSLP
1022.90 1023.47 1023.58 1023.81 1024.06 1024.14 1024.13 1024.20 1024.42 1024.50 1024.48 1024.68 1024.86 1024.90 1024.95 1025.00 1025.02 1024.88 1024.42 1024.55 1024.72 1024.64 1023.89 1023.15 1022.93 1022.73 1022.41 1022.44 1022.39 1022.23 1022.40 1022.31 1022.84 1022.83 1022.02 1020.93 1019.87 1018.78 1018.17 1017.48 1017.85 1018.66 1019.41 1019.32 1019.12 1018.05 1016.22 1014.15 1014.29 1014.24 1013.94 1013.57 1013.58 1013.58
1023.13 1023.60 1023.86 1024.06 1024.13 1024.39 1024.33 1024.45 1024.53 1024.74 1024.93 1025.04 1024.99 1025.01 1025.08 1025.07 1025.15 1025.18 1024.73 1024.52 1024.55 1024.77 1024.06 1023.28 1023.01 1022.70 1022.63 1022.41 1022.61 1022.56 1022.70 1022.68 1022.75 1022.80 1022.51 1022.04 1021.28 1020.53 1018.87 1017.74 1016.80 1017.83 1017.87 1017.96 1017.63 1016.21 1014.74 1013.92 1013.61 1013.48 1013.52 1013.58 1013.69 1013.57
1023.46 1023.97 1024.08 1024.21 1024.23 1024.41 1024.55 1024.56 1024.88 1025.02 1025.18 1025.26 1025.35 1025.32 1025.07 1025.10 1025.15 1025.27 1025.00 1024.78 1024.84 1024.44 1023.73 1022.83 1021.87 1021.64 1021.40 1021.48 1021.84 1022.21 1022.40 1022.46 1022.53 1022.50 1022.81 1022.56 1021.72 1020.61 1019.49 1018.30 1017.42 1016.58 1016.73 1016.67 1016.45 1015.03 1014.22 1013.77 1013.39 1013.15 1013.17 1013.54 1013.66 1013.66
1023.84 1024.34 1024.58 1024.83 1024.89 1024.84 1024.75 1024.78 1024.89 1025.20 1025.29 1025.48 1025.43 1025.55 1025.41 1025.38 1025.34 1025.25 1025.09 1024.76 1024.87 1024.71 1024.02 1022.61 1021.47 1021.28 1021.11 1021.08 1021.01 1020.98 1021.33 1021.67 1022.00 1022.95 1023.14 1022.59 1021.76 1020.54 1019.46 1018.49 1017.78 1016.88 1016.10 1015.70 1015.33 1014.58 1013.99 1013.48 1013.08 1012.88 1013.01 1013.34 1013.56 1013.68
1023.90 1024.21 1024.54 1024.76 1025.18 1025.24 1025.10 1025.10 1025.29 1025.28 1025.43 1025.57 1025.75 1025.46 1025.52 1025.50 1025.26 1025.09 1024.83 1024.66 1024.60 1025.38 1024.49 1023.25 1022.41 1020.94 1020.23 1020.25 1020.14 1020.41 1020.77 1021.10 1021.67 1022.71 1022.72 1021.98 1020.94 1020.55 1019.33 1018.51 1016.58 1016.13 1015.40 1015.14 1014.68 1013.88 1013.48 1012.82 1012.66 1012.69 1013.21 1013.47 1013.69 1013.91
1024.11 1024.38 1024.55 1024.62 1025.34 1025.26 1025.30 1025.37 1025.37 1025.41 1025.24 1025.62 1025.87 1025.69 1025.64 1025.52 1025.36 1025.05 1025.30 1024.89 1024.88 1025.16 1025.12 1024.07 1022.18 1020.83 1020.27 1020.07 1020.21 1020.27 1020.46 1020.85 1021.36 1021.96 1021.44 1020.73 1020.05 1020.24 1018.65 1016.77 1015.49 1014.79 1014.34 1013.85 1013.83 1013.52 1013.25 1013.02 1013.00 1013.16 1013.41 1013.61 1013.79 1013.93
1024.29 1024.26 1024.63 1024.95 1025.30 1025.14 1025.39 1025.51 1025.44 1025.31 1025.42 1025.50 1025.77 1025.58 1025.60 1025.56 1025.57 1025.29 1025.32 1025.45 1025.36 1025.35 1025.50 1024.52 1022.80 1020.69 1020.28 1020.02 1020.17 1020.41 1020.42 1020.89 1021.26 1021.21 1020.42 1019.87 1019.37 1019.55 1017.77 1016.15 1015.24 1014.32 1013.59 1013.04 1013.33 1013.31 1013.38 1013.20 1013.19 1013.44 1013.56 1013.81 1014.08 1014.06
1024.01 1024.25 1024.57 1024.71 1024.81 1025.09 1025.26 1025.32 1025.46 1025.51 1025.59 1025.57 1025.56 1025.47 1025.49 1025.34 1025.23 1025.07 1025.08 1025.14 1025.41 1025.59 1025.91 1025.13 1023.17 1021.53 1020.35 1020.28 1020.46 1020.34 1020.85 1020.97 1020.80 1020.24 1019.26 1018.60 1018.39 1018.19 1016.79 1015.10 1014.19 1013.60 1013.35 1013.18 1013.12 1013.09 1013.33 1013.34 1013.18 1013.52 1013.68 1013.93 1014.09 1014.07
1023.75 1024.04 1024.07 1024.44 1024.51 1024.62 1025.01 1025.08 1025.20 1025.55 1025.52 1025.31 1025.53 1025.29 1025.32 1025.25 1025.59 1025.17 1025.14 1025.30 1025.37 1025.95 1025.55 1024.63 1023.28 1021.90 1020.81 1020.74 1020.67 1020.53 1020.61 1020.38 1019.40 1019.02 1018.10 1017.75 1016.99 1016.15 1014.40 1013.74 1013.11 1012.74 1012.75 1012.67 1012.92 1013.10 1013.32 1013.45 1013.37 1013.62 1013.92 1013.99 1014.10 1014.14
1023.59 1023.76 1023.99 1023.97 1024.14 1024.54 1024.73 1024.70 1025.02 1025.27 1025.66 1025.43 1025.40 1025.17 1025.09 1025.59 1025.52 1025.35 1024.85 1025.09 1025.29 1025.41 1025.08 1024.28 1023.11 1022.14 1021.79 1021.28 1021.01 1020.83 1020.04 1019.80 1018.59 1017.51 1016.94 1016.55 1015.35 1013.86 1013.01 1012.37 1012.17 1012.23 1012.09 1012.19 1012.45 1012.83 1013.15 1013.31 1013.45 1013.61 1013.74 1013.84 1014.00 1014.09
1023.40 1023.69 1023.59 1023.40 1023.81 1024.29 1024.32 1024.32 1024.75 1025.26 1025.56 1025.74 1025.31 1025.49 1025.45 1025.39 1025.43 1025.14 1025.30 1025.37 1024.93 1024.76 1024.16 1023.29 1022.35 1021.86 1021.29 1021.26 1021.17 1020.84 1020.09 1019.18 1018.54 1017.19 1016.69 1015.75 1014.32 1013.00 1012.00 1011.50 1011.55 1011.71 1011.79 1011.74 1011.92 1012.17 1012.48 1012.93 1013.22 1013.38 1013.72 1013.94 1014.12 1014.19
1023.02 1023.43 1023.40 1023.26 1023.49 1023.71 1023.99 1024.19 1024.70 1025.30 1025.65 1025.80 1025.84 1025.88 1026.20 1026.14 1026.03 1026.02 1025.41 1025.00 1024.75 1023.61 1022.69 1022.31 1021.79 1021.45 1021.30 1021.17 1021.34 1020.79 1020.10 1019.02 1017.99 1017.55 1016.90 1015.30 1014.09 1013.17 1012.49 1011.85 1011.14 1011.36 1011.52 1011.70 1011.95 1012.22 1012.23 1012.48 1012.83 1013.10 1013.57 1013.95 1014.18 1014.38
1022.89 1023.16 1023.09 1022.97 1023.09 1023.41 1023.80 1024.11 1024.49 1025.03 1025.48 1025.74 1026.18 1026.45 1026.47 1026.47 1026.05 1025.43 1024.83 1024.09 1023.41 1022.46 1022.24 1021.90 1021.57 1021.47 1021.15 1021.25 1021.25 1020.84 1019.84 1018.55 1017.39 1017.00 1015.92 1015.34 1014.43 1013.52 1012.96 1012.46 1011.99 1011.62 1011.49 1011.82 1012.01 1012.17 1012.37 1012.78 1013.14 1013.59 1013.88 1014.14 1014.32 1014.53
1022.62 1022.78 1022.74 1022.75 1022.75 1023.17 1023.70 1024.20 1024.62 1025.12 1025.49 1026.05 1026.45 1026.31 1026.19 1025.45 1024.85 1023.77 1023.25 1022.69 1022.32 1022.15 1022.11 1022.03 1021.97 1021.94 1021.51 1021.31 1020.78 1020.22 1019.04 1018.56 1017.37 1016.41 1015.93 1015.67 1014.96 1014.37 1013.63 1012.96 1012.38 1012.07 1011.96 1011.94 1012.10 1012.46 1012.85 1013.30 1013.68 1013.94 1014.19 1014.41 1014.52 1014.71
1022.27 1022.46 1022.55 1022.74 1022.98 1023.33 1023.79 1024.16 1024.59 1025.08 1025.76 1026.09 1026.29 1025.56 1024.63 1023.90 1023.23 1022.79 1022.41 1022.42 1022.32 1022.16 1022.16 1022.15 1022.26 1022.05 1021.71 1021.23 1020.63 1019.66 1018.91 1017.84 1016.87 1016.79 1016.31 1016.01 1015.50 1014.88 1014.30 1013.74 1013.17 1012.81 1012.64 1012.61 1012.64 1012.97 1013.27 1013.60 1013.92 1014.24 1014.61 1014.68 1014.73 1014.97
1021.97 1022.25 1022.40 1022.53 1022.96 1023.31 1023.73 1024.29 1024.90 1025.44 1025.97 1026.01 1025.44 1024.49 1023.42 1023.06 1022.48 1022.23 1021.91 1021.84 1021.75 1021.95 1022.48 1022.69 1022.48 1021.87 1021.19 1020.59 1020.06 1019.04 1018.12 1017.34 1017.07 1016.80 1016.45 1016.19 1015.78 1015.21 1014.87 1014.33 1013.89 1013.47 1013.30 1013.38 1013.43 1013.61 1013.75 1013.94 1014.30 1014.75 1014.94 1015.03 1015.19 1015.45
1021.89 1022.06 1022.05 1022.31 1022.75 1023.30 1023.79 1024.38 1024.95 1025.44 1025.55 1025.21 1024.27 1023.49 1023.16 1022.53 1022.02 1021.57 1021.37 1021.19 1020.99 1022.03 1022.47 1022.48 1021.94 1021.15 1020.46 1020.06 1019.17 1018.00 1017.49 1017.16 1016.81 1016.65 1016.51 1016.32 1016.00 1015.56 1015.23 1014.83 1014.37 1014.10 1013.99 1014.00 1014.06 1014.26 1014.41 1014.63 1014.85 1015.22 1015.44 1015.62 1015.78 1015.98
1021.67 1021.85 1022.17 1022.43 1022.93 1023.56 1024.17 1024.65 1025.17 1025.19 1024.76 1023.97 1023.37 1022.46 1022.10 1021.62 1021.20 1020.92 1020.80 1020.91 1021.23 1021.60 1021.89 1021.73 1021.10 1020.36 1019.75 1018.86 1018.00 1017.46 1017.27 1016.87 1016.57 1016.68 1016.68 1016.47 1016.23 1016.00 1015.68 1015.43 1015.09 1014.95 1014.82 1014.79 1014.80 1015.02 1015.22 1015.24 1015.39 1015.62 1015.80 1016.03 1016.19 1016.27
1021.51 1021.90 1022.22 1022.67 1023.08 1024.01 1024.53 1025.02 1025.17 1024.59 1023.39 1022.75 1022.07 1021.74 1021.45 1020.97 1020.53 1020.51 1020.51 1020.40 1020.56 1021.04 1021.48 1021.08 1020.45 1019.32 1018.57 1017.93 1017.59 1017.30 1017.04 1016.83 1016.73 1016.78 1016.72 1016.60 1016.48 1016.25 1016.01 1015.81 1015.70 1015.56 1015.50 1015.50 1015.52 1015.67 1015.77 1015.74 1015.84 1015.99 1016.14 1016.31 1016.50 1016.50
1021.55 1021.93 1022.19 1022.55 1023.08 1024.00 1024.61 1024.67 1024.77 1023.97 1022.93 1021.86 1021.33 1021.01 1020.81 1020.21 1019.92 1019.80 1019.77 1019.86 1020.11 1020.55 1020.23 1019.74 1018.93 1018.16 1017.62 1017.31 1017.24 1017.26 1017.13 1017.12 1016.99 1016.89 1016.71 1016.59 1016.45 1016.32 1016.35 1016.26 1016.20 1016.12 1016.05 1016.05 1016.11 1016.06 1016.10 1016.13 1016.14 1016.22 1016.32 1016.41 1016.56 1016.66
1021.42 1021.65 1021.87 1022.41 1023.25 1023.60 1023.70 1023.46 1023.66 1023.23 1022.34 1021.58 1020.93 1020.74 1020.24 1019.66 1019.36 1019.14 1019.09 1019.24 1019.56 1019.05 1018.54 1017.98 1017.66 1017.28 1016.92 1017.01 1017.02 1017.13 1017.16 1017.21 1017.20 1017.17 1017.01 1016.83 1016.59 1016.49 1016.46 1016.49 1016.56 1016.51 1016.49 1016.43 1016.42 1016.37 1016.39 1016.43 1016.35 1016.32 1016.42 1016.55 1016.54 1016.58
1021.18 1021.38 1022.05 1022.60 1023.08 1023.27 1023.10 1022.50 1022.44 1022.20 1022.04 1021.17 1020.73 1020.55 1020.06 1019.33 1018.76 1018.45 1018.23 1018.55 1017.97 1017.23 1016.93 1016.80 1016.66 1016.45 1016.58 1016.83 1016.91 1016.92 1016.95 1017.13 1017.24 1017.27 1017.19 1017.05 1016.87 1016.63 1016.54 1016.63 1016.79 1016.90 1016.84 1016.80 1016.77 1016.75 1016.67 1016.40 1016.36 1016.45 1016.54 1016.61 1016.55 1016.65
1021.34 1021.87 1022.44 1022.52 1022.76 1022.65 1022.28 1022.05 1022.13 1021.58 1021.39 1020.67 1020.39 1020.15 1019.63 1019.11 1018.53 1018.39 1018.12 1017.16 1016.49 1015.90 1015.79 1015.91 1016.12 1016.26 1016.32 1016.40 1016.56 1016.79 1016.97 1017.13 1017.19 1017.04 1016.89 1016.91 1016.85 1016.90 1016.89 1016.83 1016.83 1017.07 1017.14 1016.99 1016.75 1016.84 1016.87 1016.73 1016.70 1016.77 1016.73 1016.70 1016.67 1016.69
1021.42 1021.98 1022.09 1022.03 1021.89 1021.63 1021.93 1021.63 1021.28 1020.91 1020.50 1020.31 1020.10 1019.68 1019.16 1018.66 1018.42 1018.20 1017.30 1016.22 1015.65 1015.62 1015.87 1015.98 1016.15 1016.39 1016.49 1016.62 1016.74 1016.59 1016.57 1016.82 1016.97 1016.88 1016.74 1016.88 1016.94 1016.80 1016.71 1016.82 1016.85 1016.96 1017.06 1017.04 1017.02 1016.96 1016.89 1016.87 1016.85 1016.82 1016.82 1016.78 1016.71 1016.77
1021.78 1021.83 1021.75 1021.20 1021.13 1021.10 1020.90 1020.52 1020.39 1020.27 1019.98 1019.85 1019.65 1019.34 1018.84 1018.68 1018.38 1017.52 1016.52 1015.61 1015.42 1015.57 1015.72 1015.81 1016.00 1016.08 1016.19 1016.17 1016.20 1016.30 1016.38 1016.59 1016.74 1016.76 1016.53 1016.62 1016.83 1016.85 1016.83 1016.80 1016.83 1016.89 1016.97 1017.17 1017.17 1017.13 1017.10 1017.04 1016.99 1016.95 1016.95 1016.90 1016.84 1016.75
1020.55 1020.48 1020.58 1019.81 1020.00 1019.95 1019.62 1019.43 1019.42 1019.22 1019.08 1019.24 1019.04 1018.86 1018.85 1018.62 1018.06 1016.99 1015.85 1015.34 1015.29 1015.41 1015.53 1015.76 1015.89 1015.97 1016.10 1016.11 1016.32 1016.32 1016.43 1016.52 1016.66 1016.78 1016.64 1016.61 1016.70 1016.76 1016.86 1017.01 1017.09 1017.14 1017.02 1017.16 1017.22 1017.27 1017.26 1017.20 1017.22 1017.18 1017.23 1017.13 1017.11 1017.18
1019.30 1019.20 1019.25 1018.95 1018.54 1018.60 1018.45 1018.22 1018.21 1018.33 1018.41 1018.52 1018.54 1018.69 1018.63 1018.30 1017.22 1016.11 1015.52 1015.40 1015.44 1015.39 1015.44 1015.57 1015.76 1015.88 1015.87 1016.06 1016.26 1016.34 1016.48 1016.60 1016.69 1016.79 1016.77 1016.74 1016.75 1016.77 1016.91 1017.00 1017.05 1017.26 1017.16 1017.15 1017.25 1017.30 1017.39 1017.42 1017.42 1017.35 1017.31 1017.35 1017.36 1017.34
1017.96 1017.73 1017.95 1018.12 1018.17 1017.91 1017.95 1017.72 1017.72 1017.58 1017.51 1017.51 1017.74 1017.86 1017.60 1017.10 1016.17 1015.65 1015.49 1015.50 1015.47 1015.52 1015.60 1015.71 1015.80 1015.87 1015.96 1016.07 1016.19 1016.37 1016.52 1016.60 1016.68 1016.75 1016.78 1016.77 1016.68 1016.73 1016.78 1016.83 1016.91 1017.12 1017.21 1017.20 1017.24 1017.32 1017.39 1017.48 1017.49 1017.42 1017.31 1017.34 1017.44 1017.40
1017.03 1016.93 1017.21 1017.53 1017.56 1017.37 1017.09 1016.87 1016.62 1016.40 1016.21 1016.60 1016.75 1016.65 1016.44 1015.95 1015.46 1015.40 1015.47 1015.45 1015.53 1015.66 1015.82 1015.88 1016.01 1016.08 1016.22 1016.33 1016.42 1016.51 1016.60 1016.70 1016.85 1016.87 1016.87 1016.86 1016.71 1016.72 1016.61 1016.68 1016.87 1017.06 1017.12 1017.14 1017.14 1017.19 1017.29 1017.35 1017.39 1017.34 1017.29 1017.37 1017.38 1017.32
1016.26 1016.32 1016.72 1016.98 1017.09 1016.65 1016.16 1015.98 1015.70 1015.49 1015.59 1015.72 1015.76 1015.92 1015.82 1015.55 1015.17 1015.04 1015.24 1015.48 1015.58 1015.60 1015.56 1015.45 1015.48 1015.84 1016.08 1016.22 1016.30 1016.42 1016.45 1016.53 1016.63 1016.75 1016.77 1016.79 1016.81 1016.91 1016.84 1016.89 1016.97 1016.99 1016.99 1017.02 1017.05 1017.04 1016.97 1017.02 1017.09 1017.03 1017.03 1017.06 1017.13 1017.18
1015.45 1015.88 1016.13 1016.34 1016.21 1015.82 1015.58 1015.45 1015.58 1015.77 1015.88 1015.86 1015.80 1015.85 1015.56 1015.19 1014.81 1014.64 1014.79 1014.86 1015.01 1015.20 1015.38 1015.36 1015.50 1015.57 1015.81 1015.90 1016.02 1016.19 1016.27 1016.14 1016.19 1016.34 1016.46 1016.60 1016.70 1016.78 1016.82 1016.83 1016.80 1016.78 1016.79 1016.81 1016.76 1016.77 1016.75 1016.71 1016.69 1016.69 1016.67 1016.62 1016.62 1016.65
1015.46 1015.64 1015.80 1015.91 1015.74 1015.70 1015.71 1015.82 1015.77 1015.88 1015.75 1015.77 1015.54 1015.55 1015.45 1015.33 1015.08 1014.55 1014.38 1014.52 1014.82 1015.05 1015.07 1015.24 1015.32 1015.36 1015.33 1015.47 1015.57 1015.74 1015.90 1016.11 1016.16 1016.25 1016.30 1016.50 1016.61 1016.64 1016.67 1016.63 1016.55 1016.53 1016.51 1016.49 1016.42 1016.40 1016.38 1016.38 1016.40 1016.36 1016.36 1016.30 1016.22 1016.15
1015.39 1015.47 1015.53 1015.61 1015.68 1015.73 1015.70 1015.88 1015.87 1015.84 1015.67 1015.49 1015.11 1014.90 1014.98 1014.94 1014.69 1014.46 1014.64 1014.57 1014.79 1014.86 1014.94 1014.91 1015.02 1015.09 1015.23 1015.39 1015.57 1015.70 1015.88 1016.02 1016.10 1016.19 1016.32 1016.40 1016.40 1016.42 1016.42 1016.39 1016.33 1016.26 1016.14 1016.10 1016.11 1016.16 1016.15 1016.12 1016.10 1016.08 1016.05 1016.00 1015.91 1015.81
Wind_Speed
10 8 8 7 6 7 8 8 8 8 7 6 5 5 5 6 8 6 2 2 2 2 7 10 10 9 8 6 6 6 6 2 2 4 4 4 6 7 7 10 7 8 6 4 5 4 9 4 5 3 2 5 3 3
10 10 9 8 9 9 9 9 8 7 6 6 5 5 5 6 6 5 2 2 2 3 5 12 14 14 13 13 9 3 6 10 3 4 5 5 10 7 7 4 2 3 6 4 6 6 6 3 4 4 4 3 6 1
12 11 10 10 9 9 8 8 7 7 6 6 5 6 7 7 5 3 4 3 2 3 6 6 7 8 8 11 10 7 5 9 10 7 4 4 8 4 7 6 12 2 7 5 4 12 12 7 7 6 3 2 5 4
10 8 7 6 6 7 6 5 6 6 6 6 6 6 6 6 5 5 3 3 2 3 3 5 7 12 14 13 14 14 12 9 6 3 3 5 5 5 5 6 9 8 4 6 9 14 15 6 8 6 2 5 5 2
9 8 7 6 4 4 4 5 5 5 6 6 6 6 6 7 7 4 4 3 3 2 4 6 12 19 8 8 11 8 8 7 4 3 5 6 6 6 7 7 12 9 9 6 6 9 8 5 7 6 5 1 2 3
7 7 7 6 5 5 5 4 2 3 3 3 5 6 7 8 6 3 4 2 1 1 3 4 6 12 9 4 7 9 8 6 5 3 4 5 11 6 5 5 7 12 14 8 12 4 4 4 6 3 3 3 4 1
8 8 8 7 5 4 4 3 1 2 2 4 4 6 8 8 4 2 2 2 2 2 1 5 5 3 6 9 2 5 7 0 1 3 6 8 9 2 3 7 8 11 8 7 9 3 3 3 2 6 2 4 3 1
10 10 10 8 6 6 6 5 4 3 4 6 7 9 10 8 7 3 2 4 1 2 1 3 5 5 5 3 3 1 2 2 4 4 4 4 2 5 7 7 12 14 6 4 6 5 6 5 6 4 3 4 2 3
12 12 11 10 9 9 9 9 7 2 4 6 9 11 2 1 1 1 3 2 1 2 3 3 3 6 2 3 3 2 2 4 4 5 4 4 4 7 9 13 13 10 11 11 7 7 7 7 4 5 5 5 4 4
15 13 13 9 8 6 10 11 7 4 1 6 3 2 1 2 7 10 2 1 1 1 2 4 2 8 7 4 3 3 3 4 4 5 3 4 5 12 11 12 7 7 7 10 8 6 7 6 6 5 5 2 1 3
12 13 12 11 9 9 8 9 5 6 1 2 1 1 3 4 2 1 2 2 1 3 4 4 5 6 4 5 4 3 4 3 3 3 2 3 4 5 7 10 8 7 7 5 5 5 8 7 6 5 6 3 0 1
8 10 11 10 11 9 6 9 10 5 1 2 1 1 3 2 0 2 3 2 3 4 3 3 4 4 3 1 2 3 4 3 5 2 2 4 3 5 8 11 2 5 2 4 3 4 7 7 4 5 5 4 2 1
7 6 7 7 8 7 2 7 12 7 7 1 2 1 1 1 2 4 4 3 4 2 2 4 5 2 2 1 3 3 4 5 3 2 4 3 6 8 8 8 6 6 3 7 6 5 6 7 8 5 3 2 1 3
6 5 2 2 6 11 9 10 13 8 2 2 2 3 4 4 5 5 5 4 3 3 4 5 4 2 3 3 3 3 4 3 3 3 4 7 8 9 9 6 5 4 5 2 8 2 3 3 3 3 2 1 2 2
6 5 4 4 6 9 11 13 14 2 3 2 3 5 7 7 6 6 3 1 4 4 5 3 3 3 3 3 3 4 3 4 1 5 2 5 7 7 8 7 8 4 3 4 4 3 4 5 5 5 3 4 4 4
6 4 6 9 9 10 10 8 4 2 1 2 5 5 5 6 7 6 7 5 4 3 2 1 3 3 5 3 2 5 3 2 2 3 3 5 6 7 6 6 5 5 4 4 5 5 5 5 7 6 6 6 6 6
7 2 5 8 10 10 11 3 2 3 4 5 5 6 8 9 9 7 6 5 1 4 2 3 4 8 1 2 3 3 2 3 2 3 3 4 6 7 5 5 6 5 5 5 5 5 5 6 6 6 7 5 6 4
4 6 8 9 8 6 2 2 3 4 7 6 5 5 7 8 8 7 5 3 1 2 2 4 4 2 4 3 2 2 2 1 1 3 2 3 5 6 6 6 5 6 6 6 6 6 5 5 6 5 7 5 3 2
4 5 10 14 6 5 3 3 3 4 6 5 7 7 6 6 7 7 6 4 3 3 2 3 5 3 4 3 4 4 3 2 2 1 1 1 2 4 3 4 6 6 6 6 6 4 4 6 4 3 3 3 1 2
10 7 9 13 8 3 3 3 2 4 4 3 3 5 4 6 5 4 4 3 4 3 5 5 5 4 4 2 1 2 2 3 3 3 2 2 1 1 4 4 3 4 3 3 3 2 2 2 1 1 1 2 1 1
5 4 7 5 2 4 3 3 5 4 4 4 3 4 4 3 6 6 6 3 5 4 4 5 5 5 4 1 1 0 0 1 3 3 2 2 2 3 2 2 3 3 3 3 3 2 1 1 1 2 2 2 3 3
3 6 3 4 2 3 4 4 2 2 3 4 2 3 4 5 6 5 2 5 4 4 4 5 5 4 4 4 4 5 2 2 1 3 4 2 3 2 2 2 3 3 3 2 2 2 3 3 3 3 1 3 2 1
8 3 2 3 5 7 3 2 5 5 5 3 2 3 3 3 2 2 3 4 4 4 4 3 2 1 1 3 4 3 4 4 3 3 2 2 1 1 2 2 1 1 2 3 1 1 2 2 1 1 3 0 2 0
5 4 4 5 6 4 3 4 3 3 3 2 3 3 3 3 1 3 4 3 4 2 2 3 3 3 2 2 3 4 4 4 3 3 2 1 3 3 2 0 0 1 2 1 2 2 1 1 1 2 3 2 2 1
3 5 4 5 3 4 5 4 4 4 3 4 3 3 3 2 3 3 3 3 3 3 3 3 3 3 3 2 2 2 3 2 3 3 1 3 2 1 2 3 3 1 2 0 1 1 1 0 2 1 3 1 2 3
8 8 8 9 5 5 6 4 6 6 5 3 4 1 1 2 2 6 3 2 2 2 3 3 3 2 2 2 1 1 3 2 1 1 2 2 1 0 1 1 0 1 1 1 2 2 2 1 1 2 2 2 1 3
6 7 4 3 2 3 3 2 3 2 3 5 3 3 3 3 5 4 0 1 0 1 2 2 2 2 1 3 2 2 2 2 0 1 1 2 2 2 0 1 1 2 1 2 1 1 2 3 3 2 2 3 2 2
6 4 7 7 5 4 4 3 5 5 4 3 3 5 5 5 3 1 1 1 1 2 2 2 2 2 2 3 3 2 1 1 0 1 2 3 4 2 2 2 2 5 1 1 1 2 2 2 2 3 3 4 5 5
4 3 4 4 3 4 4 6 5 4 4 4 4 4 4 3 1 2 2 2 2 2 3 3 3 2 2 2 1 1 1 1 2 4 5 4 2 3 3 2 2 1 1 1 2 4 4 3 3 4 5 5 4 5
4 5 4 5 5 6 4 5 3 2 3 3 0 0 2 2 4 2 3 3 3 4 4 4 3 5 4 4 3 3 4 3 3 3 3 2 1 2 1 1 2 2 1 1 2 3 5 4 5 4 4 3 2 3
4 5 3 4 4 4 4 2 2 1 0 2 3 3 4 3 2 4 5 4 4 4 4 3 3 4 4 4 3 3 3 3 4 4 2 1 0 1 2 2 2 2 2 4 4 4 4 5 4 5 7 6 6 7
4 5 4 4 3 2 2 2 3 3 4 3 3 4 2 2 4 4 2 3 4 4 6 5 4 4 4 3 2 1 1 0 1 3 3 2 2 2 3 3 3 3 4 4 4 4 5 6 5 6 5 6 7 7
1 3 1 1 2 3 3 3 3 3 2 3 3 5 4 3 5 1 1 1 1 1 3 3 2 3 3 3 2 2 3 2 2 3 2 4 6 6 4 3 4 4 4 3 4 5 6 6 5 6 6 6 7 7
Wind_Direction
136 142 136 128 113 95 97 98 92 88 79 67 55 53 42 34 20 351 87 36 315 226 286 278 295 286 296 304 283 309 341 183 244 247 264 268 268 273 275 262 164 176 177 184 205 241 251 173 90 206 98 348 322 275
135 138 131 129 122 108 101 97 93 85 74 66 56 42 24 19 17 347 296 148 333 245 272 306 287 281 272 275 286 298 271 298 298 327 320 324 318 310 311 275 84 166 198 169 206 218 286 190 220 187 360 10 312 303
137 137 133 129 118 115 114 108 95 86 79 65 54 45 38 26 19 358 334 358 297 275 277 258 292 302 248 238 233 255 247 270 275 282 291 263 254 271 281 268 302 242 200 230 246 258 266 253 263 265 157 263 302 341
139 136 130 122 115 110 97 95 88 71 56 35 21 13 11 4 4 349 296 323 277 291 274 287 332 309 312 294 274 263 263 259 274 82 260 264 268 248 259 281 294 277 211 241 258 273 284 275 247 236 73 25 308 333
155 152 151 142 135 129 118 102 97 86 69 50 32 28 18 8 345 302 265 277 305 287 299 304 293 277 293 301 283 264 273 258 223 198 233 249 250 254 245 261 256 259 259 206 246 245 277 221 43 89 78 312 126 275
163 167 156 149 160 148 127 129 98 69 63 53 25 16 3 352 343 286 9 10 29 126 288 302 346 284 294 307 294 275 264 262 252 211 232 227 238 246 265 253 256 246 248 215 250 291 32 59 117 104 131 116 92 22
184 176 175 181 187 178 186 203 245 11 336 356 353 346 338 334 304 294 315 57 14 349 4 293 276 280 323 269 260 275 285 205 254 244 228 241 248 235 257 250 272 280 329 193 245 284 301 231 208 168 173 126 140 303
196 198 201 204 208 220 230 234 248 300 320 329 326 328 324 298 275 258 43 104 335 90 180 268 271 268 347 299 308 99 257 190 216 237 248 216 202 196 243 229 242 253 246 294 282 236 245 344 133 144 150 158 251 288
213 208 211 216 230 232 233 238 251 235 291 326 319 312 278 241 313 54 338 302 244 224 247 224 260 301 228 283 258 258 202 247 208 222 219 195 200 224 225 231 243 244 231 230 227 229 221 239 223 152 180 216 242 276
228 228 229 224 246 261 254 249 245 232 3 326 292 270 252 48 334 312 120 238 113 323 249 258 258 262 295 305 282 303 236 253 260 225 132 223 247 256 242 243 230 239 234 230 230 191 204 222 204 238 214 188 283 268
221 225 235 234 234 246 273 242 206 150 50 266 272 316 35 337 280 323 291 270 203 243 199 245 250 288 297 299 291 249 276 267 275 334 268 228 250 322 316 232 222 219 249 216 243 234 197 184 225 197 121 94 20 320
223 232 238 243 246 252 263 196 174 179 174 96 6 190 19 13 47 295 250 257 230 263 188 259 310 321 293 291 276 269 249 267 252 183 261 264 23 346 360 350 226 205 203 159 213 240 253 195 131 100 112 118 155 172
213 237 249 258 253 205 185 189 176 136 128 90 39 296 282 128 260 219 217 224 247 250 301 287 320 307 300 256 248 270 282 246 331 228 234 42 346 3 357 346 337 329 244 182 182 188 66 75 72 52 46 83 287 125
214 220 221 273 172 171 177 167 159 148 119 161 183 241 216 204 236 218 252 310 347 349 338 328 328 291 298 276 256 264 259 295 274 252 42 338 356 351 343 339 339 24 352 251 170 177 136 131 97 108 106 137 153 123
215 224 231 197 175 161 166 166 169 119 137 201 189 237 222 237 271 277 274 336 291 302 319 338 297 217 269 272 237 289 266 255 273 9 336 359 349 351 349 347 347 41 37 52 72 98 117 130 132 114 129 119 110 103
208 242 226 214 185 185 165 143 145 78 107 240 233 248 252 270 266 266 275 275 242 239 52 230 263 286 252 218 253 242 286 315 27 305 3 349 344 5 349 346 352 0 79 90 95 111 117 121 118 126 114 91 81 88
173 235 154 186 196 186 173 122 110 173 214 218 237 235 261 278 282 281 271 274 103 122 210 233 230 224 184 239 249 234 302 343 9 343 39 18 335 340 8 13 24 41 79 100 100 100 88 88 105 105 97 87 93 87
200 146 143 145 117 102 59 97 169 217 234 228 240 230 243 261 273 270 263 286 149 180 186 234 277 255 239 237 254 300 220 358 18 49 43 342 358 9 6 14 41 54 51 62 82 87 89 97 91 77 92 92 99 119
200 163 167 155 135 108 147 178 191 250 235 239 239 246 252 260 255 266 274 251 195 190 235 220 250 233 227 256 282 326 345 57 360 91 104 206 345 339 17 23 40 42 47 45 53 60 57 50 65 74 102 113 106 105
210 205 190 175 153 113 177 211 210 255 255 255 238 248 243 250 262 250 257 239 190 207 215 208 219 242 260 283 52 342 13 31 342 298 199 181 206 29 52 32 34 19 56 73 83 29 77 77 102 89 20 9 43 212
183 220 205 142 140 183 237 174 206 230 247 243 249 248 260 265 260 249 246 195 218 210 229 219 235 244 269 92 126 240 207 75 326 354 360 1 18 11 6 49 32 16 34 17 8 17 46 298 320 121 134 240 252 261
190 115 69 120 165 196 247 230 239 236 223 243 253 205 263 262 269 259 148 210 232 218 204 233 254 212 195 184 211 202 202 142 271 284 252 246 292 304 348 63 43 354 358 344 359 344 340 350 20 14 31 294 308 324
95 94 127 163 194 207 230 155 207 201 223 225 191 231 234 244 247 130 250 226 234 221 201 196 182 340 294 155 127 155 184 201 234 251 249 249 305 317 279 289 182 237 301 302 75 334 328 28 322 294 306 330 296 241
95 164 194 203 209 203 139 207 216 242 221 209 221 241 244 226 106 242 251 246 212 124 142 206 160 195 158 152 219 219 198 181 233 263 224 221 261 257 163 245 89 229 211 339 334 318 325 307 341 285 257 262 251 259
173 204 208 203 213 191 202 188 195 208 242 209 226 261 244 181 242 246 243 251 164 176 199 167 193 235 219 199 112 112 107 166 232 243 212 151 281 289 233 205 194 154 96 200 263 222 265 152 317 334 354 352 311 252
215 192 196 191 181 197 195 194 200 214 192 201 231 220 169 244 248 248 242 315 127 172 174 187 196 196 198 178 146 171 165 151 153 222 255 126 244 300 61 82 97 164 72 73 39 12 360 78 71 16 356 22 24 347
214 204 205 248 217 183 222 197 174 189 193 200 208 180 190 231 242 247 190 195 202 159 100 116 143 183 168 141 148 124 115 133 178 89 25 1 346 358 60 246 332 141 92 73 40 44 21 8 7 358 13 18 360 320
224 187 184 178 203 197 179 201 182 208 209 195 152 192 204 212 252 201 134 112 88 100 117 99 61 46 57 71 75 101 138 122 112 253 272 258 231 223 226 242 148 131 55 33 26 353 325 299 301 308 310 299 289 287
216 192 150 178 195 185 216 198 208 207 187 164 193 208 225 225 224 181 197 186 176 187 188 183 185 170 169 169 179 211 200 207 235 254 264 269 256 225 181 128 97 190 216 195 252 256 268 285 295 294 285 280 278 283
217 169 177 171 176 211 216 198 252 213 159 204 218 318 248 250 234 172 160 173 189 212 224 212 179 162 197 193 213 205 202 206 220 226 256 289 54 106 79 133 244 252 253 266 268 275 287 284 275 258 248 244 286 294
140 175 176 180 219 208 204 178 112 21 62 242 221 236 254 297 289 209 199 205 196 190 201 205 211 201 194 204 199 223 268 210 197 213 189 140 347 294 276 266 266 265 257 266 272 264 260 270 256 270 278 266 241 247
178 192 183 197 230 115 106 177 200 207 203 200 221 184 236 223 237 237 210 175 178 186 218 219 206 217 200 178 157 137 126 64 137 186 186 180 234 263 271 269 258 257 262 259 252 249 255 259 260 260 260 261 265 262
205 190 235 177 172 208 186 186 205 247 225 228 237 197 196 228 251 205 16 13 135 204 205 185 154 110 115 138 165 168 177 206 179 139 175 240 260 267 274 276 273 275 278 284 282 273 271 273 274 275 273 273 273 273